Location: Baller�as
(41.9020°N, 0.1554°W)
Time: 12:13:49
(UTC+00:00)

X-37B - Pass Details

Date: 10 August 2020
Orbit: 386 x 387 km, 45.0° (Epoch: 18 September)

Event Time Altitude Azimuth Distance (km) Brightness Sun altitude
Rises 22:03:47 0° 284° (WNW) 2,265 5.1 -26.3°
Reaches altitude 10° 22:05:54 10° 290° (WNW) 1,411 4.1 -26.5°
Enters shadow 22:06:47 17° 296° (WNW) 1,072 3.4 -26.6°
